SPACEMOBILE-SSR02 DEB, 62370

Orbit data source: Space-Track

SPACEMOBILE-SSR02 DEB, 62370 is space debris in LEO originally from a launch on Thu, 12 Sep 2024 UTC launched from the Air Force Eastern Test Range (AFETR). Debris objects in space refer to the collection of defunct objects orbiting the Earth. Examples of debris include non-operational satellites, rocket bodies, and fragments generated from explosions, collisions, or faulty payload assembly.

Loading next visibility...
Identifier
62370, 2024-163G
Orbit
LEO
Country
Flag of USUS
Related business
Manufacturer
AST & Science
Mission
Spacecraft
Bus & Motor
BW3 LVA, Unknown motor
Mass
150 kg wet, 150 kg dry
Launch date (UTC)
2024-09-12 (2 years ago)
Launch vehicle
Unknown
Launch site
Air Force Eastern Test Range (AFETR)
Object type
Payload
Rocket body
Debris
Shape & HBR
Cyl, 3.8 m
Radar Cross Section
1.963 m², Large (>1 m²)

Expand to show TLE details & history
Last TLE update: 17 hours ago

TLE from 17 hours ago
0 SPACEMOBILE-SSR02 DEB
1 62370U 24163G   26094.84819510  .00028831  00000-0  71856-3 0  9993
2 62370  52.9427 253.2759 0006914 311.9514  48.0898 15.39996006 87051
Epoch: 2026-04-04T20:21Z
TLE epoch observation values (Epoch: 2026-04-04T20:21:24.056Z)
Latitude
-0.00006°
Longitude
114.76354°
Altitude
443.851 km
Speed
7.649 km/s
True Right ascension
16h 53m 06s
True Declination
0° 00' 00"
Sunlit
Object was in full shadow at epoch
Visualization orbit readout
Latitude
Unknown
Longitude
Unknown
Altitude
Unknown
Speed
Unknown
Apparent Right ascension
Unknown
Apparent Declination
Unknown
Sunlit
N/A
Visualization observer readout
Local Sidereal Time
19:26:50
Azimuth
Unknown
Elevation
Unknown
Doppler factor
Unknown
Orbital elements
Apogee altitude
451.132 km
Perigee altitude
441.695 km
Semi-major axis
6,824.551 km
Eccentricity
0.00069
Inclination
52.9427°
RAAN
253.2759°
Arg. of periapsis
311.9514°
True anomaly
48.1488°
Mean anomaly
48.0898°
Eccentric anomaly
48.11929°
Mean motion
3.84975 °/min
Orbital period
93.51 mins
BSTAR
0.00071856
Loading maneuver chart data...
Computing Atmospheric mass density...
Loading historical data...
Loading historical data...
Loading historical data...
Loading historical data...
Loading historical data...
Loading historical data...
Loading historical data...

Documentation

Showing up to 5 results
|